DW7325 Weather Reports


Display with metric or nautical units.
time (UTC)temp
F
wind
direction
speed
MPH
gust
MPH
rain 1hr
in
rain 24hr
in
rain mn
in
humidity
%
barometer
mb
20260505184055 84 283 3.0 12.0 0.00 0.00 0.00 31 1009.0
20260505183951 84 157 3.0 12.0 0.00 0.00 0.00 29 1009.1
20260505183845 84 262 3.0 12.0 0.00 0.00 0.00 31 1009.1
20260505183739 84 88 3.0 12.0 0.00 0.00 0.00 29 1009.1
20260505183633 84 259 2.0 12.0 0.00 0.00 0.00 31 1009.1
20260505183308 84 180 2.0 12.0 0.00 0.00 0.00 29 1009.2
20260505183206 84 185 1.0 9.0 0.00 0.00 0.00 31 1009.2
20260505183059 84 80 1.0 7.0 0.00 0.00 0.00 30 1009.4
20260505182953 84 112 1.0 7.0 0.00 0.00 0.00 32 1009.3
20260505182847 84 197 1.0 7.0 0.00 0.00 0.00 33 1009.4
20260505182740 84 91 1.0 7.0 0.00 0.00 0.00 31 1009.4
20260505182638 84 259 1.0 7.0 0.00 0.00 0.00 31 1009.4
20260505182531 84 264 1.0 7.0 0.00 0.00 0.00 32 1009.3
20260505182425 84 182 2.0 7.0 0.00 0.00 0.00 30 1009.3
20260505181840 83 115 2.0 7.0 0.00 0.00 0.00 31 1009.4
20260505181735 83 213 2.0 7.0 0.00 0.00 0.00 30 1009.4
20260505181629 83 275 2.0 8.0 0.00 0.00 0.00 30 1009.4
20260505181524 83 92 2.0 8.0 0.00 0.00 0.00 30 1009.4
20260505181418 84 53 2.0 8.0 0.00 0.00 0.00 31 1009.4
20260505181314 83 109 2.0 8.0 0.00 0.00 0.00 33 1009.4
20260505181209 83 104 2.0 8.0 0.00 0.00 0.00 31 1009.5
20260505181104 83 335 2.0 8.0 0.00 0.00 0.00 32 1009.5
20260505180959 83 176 2.0 8.0 0.00 0.00 0.00 29 1009.5
20260505180638 84 135 2.0 8.0 0.00 0.00 0.00 31 1009.5
20260505180531 84 182 2.0 8.0 0.00 0.00 0.00 32 1009.6
20260505180429 84 123 2.0 8.0 0.00 0.00 0.00 30 1009.6
20260505180322 84 274 2.0 8.0 0.00 0.00 0.00 30 1009.6
20260505175735 85 244 2.0 8.0 0.00 0.00 0.00 32 1009.5
20260505175632 85 264 1.0 7.0 0.00 0.00 0.00 33 1009.6
20260505175525 85 5 2.0 7.0 0.00 0.00 0.00 32 1009.6
20260505175158 86 205 2.0 7.0 0.00 0.00 0.00 33 1009.7
20260505175053 86 125 2.0 7.0 0.00 0.00 0.00 31 1009.7
20260505174948 86 95 2.0 7.0 0.00 0.00 0.00 31 1009.6
20260505174841 86 180 2.0 7.0 0.00 0.00 0.00 32 1009.7
20260505174736 86 157 2.0 7.0 0.00 0.00 0.00 31 1009.6
20260505174634 86 248 2.0 7.0 0.00 0.00 0.00 33 1009.6
20260505174530 86 276 2.0 7.0 0.00 0.00 0.00 33 1009.7
20260505174424 86 40 2.0 7.0 0.00 0.00 0.00 32 1009.7
20260505174322 86 221 1.0 6.0 0.00 0.00 0.00 32 1009.8
20260505174219 86 79 1.0 6.0 0.00 0.00 0.00 33 1009.6
20260505173854 86 193 1.0 11.0 0.00 0.00 0.00 32 1009.8
20260505173750 86 311 1.0 11.0 0.00 0.00 0.00 34 1009.8
20260505173647 86 193 1.0 11.0 0.00 0.00 0.00 34 1009.7
20260505173541 86 71 1.0 11.0 0.00 0.00 0.00 33 1009.8
20260505173436 85 150 1.0 11.0 0.00 0.00 0.00 35 1009.7
20260505173333 85 346 2.0 11.0 0.00 0.00 0.00 31 1009.7
20260505173230 85 209 2.0 11.0 0.00 0.00 0.00 32 1009.7
20260505172648 86 117 2.0 11.0 0.00 0.00 0.00 33 1009.8
20260505172543 86 69 2.0 11.0 0.00 0.00 0.00 32 1009.7
20260505172436 86 148 2.0 11.0 0.00 0.00 0.00 33 1009.8
20260505172333 86 92 2.0 11.0 0.00 0.00 0.00 32 1009.9
20260505172229 86 284 2.0 11.0 0.00 0.00 0.00 33 1009.8
20260505172126 86 95 2.0 11.0 0.00 0.00 0.00 33 1009.9
20260505172018 86 226 2.0 8.0 0.00 0.00 0.00 33 1009.9
20260505171914 86 136 2.0 8.0 0.00 0.00 0.00 33 1009.8
20260505171808 86 142 2.0 8.0 0.00 0.00 0.00 31 1009.8
20260505171700 86 114 2.0 8.0 0.00 0.00 0.00 33 1009.9
20260505171556 86 171 2.0 8.0 0.00 0.00 0.00 33 1009.8
20260505171453 86 172 2.0 8.0 0.00 0.00 0.00 33 1009.8
20260505171348 86 193 2.0 14.0 0.00 0.00 0.00 34 1009.8
20260505171024 86 311 1.0 14.0 0.00 0.00 0.00 32 1009.9
20260505170917 86 163 1.0 14.0 0.00 0.00 0.00 33 1009.8
20260505170814 85 122 1.0 14.0 0.00 0.00 0.00 34 1009.9
20260505170712 85 117 2.0 14.0 0.00 0.00 0.00 33 1009.9
20260505170608 85 274 2.0 14.0 0.00 0.00 0.00 33 1009.9
20260505170505 85 277 1.0 14.0 0.00 0.00 0.00 34 1009.9
20260505170400 85 172 2.0 14.0 0.00 0.00 0.00 33 1010.1
20260505165819 86 188 2.0 14.0 0.00 0.00 0.00 34 1010.1
20260505165716 86 335 1.0 14.0 0.00 0.00 0.00 32 1010.2
20260505165613 86 227 1.0 14.0 0.00 0.00 0.00 33 1010.1
20260505165507 86 165 1.0 14.0 0.00 0.00 0.00 32 1010.1
20260505165405 86 167 1.0 8.0 0.00 0.00 0.00 32 1010.1
20260505165305 86 257 1.0 8.0 0.00 0.00 0.00 33 1010.1
20260505165200 86 112 1.0 8.0 0.00 0.00 0.00 35 1010.1
20260505165053 86 119 1.0 8.0 0.00 0.00 0.00 36 1010.1
20260505164951 85 45 1.0 8.0 0.00 0.00 0.00 34 1010.1
20260505164848 85 327 1.0 8.0 0.00 0.00 0.00 32 1010.2
20260505164744 85 17 2.0 8.0 0.00 0.00 0.00 35 1010.2
20260505164639 85 236 2.0 8.0 0.00 0.00 0.00 37 1010.3
20260505164534 85 169 1.0 8.0 0.00 0.00 0.00 36 1010.3
20260505164429 85 115 1.0 5.0 0.00 0.00 0.00 34 1010.4
20260505164325 85 99 1.0 5.0 0.00 0.00 0.00 37 1010.3
20260505164223 85 165 1.0 5.0 0.00 0.00 0.00 35 1010.3
20260505163856 84 202 1.0 8.0 0.00 0.00 0.00 35 1010.4
20260505163534 84 38 1.0 8.0 0.00 0.00 0.00 35 1010.4
20260505163206 84 297 2.0 8.0 0.00 0.00 0.00 34 1010.4
20260505163100 84 150 2.0 8.0 0.00 0.00 0.00 35 1010.4
20260505162955 84 101 1.0 8.0 0.00 0.00 0.00 35 1010.4
20260505162148 84 211 1.0 9.0 0.00 0.00 0.00 36 1010.6
20260505162041 84 155 1.0 9.0 0.00 0.00 0.00 35 1010.6
20260505161934 84 220 1.0 9.0 0.00 0.00 0.00 36 1010.6
20260505161830 84 190 1.0 9.0 0.00 0.00 0.00 36 1010.7
20260505161726 84 22 1.0 9.0 0.00 0.00 0.00 35 1010.8
20260505161619 84 230 1.0 9.0 0.00 0.00 0.00 34 1010.8
20260505161255 84 277 1.0 9.0 0.00 0.00 0.00 34 1010.8
20260505160930 84 344 1.0 9.0 0.00 0.00 0.00 34 1010.9
20260505160824 84 219 1.0 9.0 0.00 0.00 0.00 34 1011.0
20260505160505 84 227 1.0 9.0 0.00 0.00 0.00 36 1011.0
20260505160359 84 355 1.0 9.0 0.00 0.00 0.00 36 1011.0
20260505160254 84 75 1.0 9.0 0.00 0.00 0.00 35 1011.0
20260505160152 84 120 1.0 9.0 0.00 0.00 0.00 34 1011.1
20260505153356 83 202 1.0 7.0 0.00 0.00 0.00 37 1011.3
20260505153252 82 126 1.0 7.0 0.00 0.00 0.00 38 1011.3
20260505153150 82 153 1.0 7.0 0.00 0.00 0.00 39 1011.3
20260505153044 82 140 1.0 7.0 0.00 0.00 0.00 37 1011.3
20260505152941 82 130 1.0 7.0 0.00 0.00 0.00 36 1011.3
20260505152837 82 321 0.0 7.0 0.00 0.00 0.00 36 1011.3
20260505152514 82 43 1.0 7.0 0.00 0.00 0.00 37 1011.3
20260505152411 82 229 1.0 7.0 0.00 0.00 0.00 38 1011.3
20260505152307 82 46 1.0 7.0 0.00 0.00 0.00 38 1011.3
20260505152202 81 155 1.0 7.0 0.00 0.00 0.00 37 1011.2
20260505152055 81 212 1.0 7.0 0.00 0.00 0.00 37 1011.3
20260505151951 81 221 1.0 7.0 0.00 0.00 0.00 37 1011.2
20260505151848 81 145 1.0 7.0 0.00 0.00 0.00 37 1011.2
20260505151742 81 282 1.0 7.0 0.00 0.00 0.00 38 1011.2
20260505151421 81 161 1.0 6.0 0.00 0.00 0.00 39 1011.2
20260505151318 81 205 1.0 6.0 0.00 0.00 0.00 40 1011.1
20260505151211 81 229 1.0 6.0 0.00 0.00 0.00 40 1011.2
20260505150847 81 173 0.0 6.0 0.00 0.00 0.00 39 1011.2
20260505150740 81 205 0.0 6.0 0.00 0.00 0.00 38 1011.3
20260505150415 80 244 1.0 6.0 0.00 0.00 0.00 39 1011.2
20260505150307 80 235 1.0 6.0 0.00 0.00 0.00 38 1011.2
20260505150202 80 88 1.0 6.0 0.00 0.00 0.00 40 1011.3
20260505140556 73 215 0.0 6.0 0.00 0.00 0.00 48 1011.4
20260505140453 73 141 0.0 6.0 0.00 0.00 0.00 48 1011.5
20260505140346 73 117 0.0 6.0 0.00 0.00 0.00 48 1011.6
20260505140242 73 169 0.0 6.0 0.00 0.00 0.00 49 1011.6
20260505140136 73 39 0.0 6.0 0.00 0.00 0.00 50 1011.5
20260505130300 63 51 0.0 2.0 0.00 0.00 0.00 62 1011.8
20260505130153 63 223 0.0 2.0 0.00 0.00 0.00 63 1011.8
20260505124953 62 133 0.0 2.0 0.00 0.00 0.00 67 1011.8
20260505124850 62 133 0.0 2.0 0.00 0.00 0.00 68 1011.8
20260505124747 62 148 0.0 2.0 0.00 0.00 0.00 68 1011.8
20260505124423 61 95 0.0 1.0 0.00 0.00 0.00 68 1011.8
20260505124316 61 100 0.0 1.0 0.00 0.00 0.00 68 1011.8
20260505124208 61 100 0.0 3.0 0.00 0.00 0.00 68 1011.8
20260505124103 61 84 0.0 3.0 0.00 0.00 0.00 67 1011.8
20260505123956 61 0 0.0 3.0 0.00 0.00 0.00 68 1011.8
20260505123850 61 115 0.0 3.0 0.00 0.00 0.00 67 1011.8
20260505123748 61 228 0.0 3.0 0.00 0.00 0.00 67 1011.8
20260505123643 61 263 0.0 3.0 0.00 0.00 0.00 68 1011.8
20260505123100 60 213 0.0 4.0 0.00 0.00 0.00 68 1011.7
20260505122956 60 198 0.0 4.0 0.00 0.00 0.00 69 1011.7
20260505122411 60 263 0.0 4.0 0.00 0.00 0.00 71 1011.7
20260505122307 60 326 0.0 4.0 0.00 0.00 0.00 71 1011.7
20260505122203 59 294 0.0 4.0 0.00 0.00 0.00 71 1011.7
20260505122058 59 5 0.0 4.0 0.00 0.00 0.00 71 1011.7
20260505121954 59 44 0.0 4.0 0.00 0.00 0.00 71 1011.7
20260505121850 59 148 0.0 4.0 0.00 0.00 0.00 71 1011.7
20260505121743 59 190 0.0 4.0 0.00 0.00 0.00 70 1011.7
20260505121417 59 226 0.0 4.0 0.00 0.00 0.00 69 1011.7
20260505121312 59 238 0.0 4.0 0.00 0.00 0.00 70 1011.7
20260505121208 59 138 0.0 0.0 0.00 0.00 0.00 71 1011.7
20260505121105 59 138 0.0 0.0 0.00 0.00 0.00 71 1011.7
20260505121003 59 138 0.0 4.0 0.00 0.00 0.00 71 1011.7
20260505120900 59 138 0.0 4.0 0.00 0.00 0.00 70 1011.7
20260505120537 59 122 0.0 4.0 0.00 0.00 0.00 72 1011.7
20260505120433 59 205 0.0 4.0 0.00 0.00 0.00 72 1011.7
20260505120327 59 231 0.0 4.0 0.00 0.00 0.00 72 1011.7
20260505120223 58 129 0.0 4.0 0.00 0.00 0.00 72 1011.7
20260505120117 58 259 0.0 4.0 0.00 0.00 0.00 72 1011.7
20260505120014 58 227 0.0 3.0 0.00 0.00 0.00 72 1011.7
20260505115912 58 164 0.0 1.0 0.00 0.00 0.00 73 1011.7
20260505115806 58 109 0.0 1.0 0.00 0.00 0.00 73 1011.7
20260505115703 58 190 0.0 0.0 0.00 0.00 0.00 72 1011.7
20260505115556 58 190 0.0 3.0 0.00 0.00 0.00 72 1011.7
20260505115451 58 184 0.0 3.0 0.00 0.00 0.00 72 1011.6
20260505115345 58 184 0.0 3.0 0.00 0.00 0.00 72 1011.6
20260505115241 58 188 0.0 3.0 0.00 0.00 0.00 72 1011.6
20260505115133 58 231 0.0 3.0 0.00 0.00 0.00 72 1011.7
20260505115026 58 194 0.0 3.0 0.00 0.00 0.00 73 1011.7
20260505114920 58 228 0.0 3.0 0.00 0.00 0.00 73 1011.7
20260505114817 58 229 0.0 3.0 0.00 0.00 0.00 73 1011.6
20260505114709 58 216 0.0 3.0 0.00 0.00 0.00 73 1011.7
20260505114606 58 82 0.0 3.0 0.00 0.00 0.00 73 1011.7
20260505114501 58 234 0.0 3.0 0.00 0.00 0.00 73 1011.6
20260505114359 58 234 0.0 3.0 0.00 0.00 0.00 73 1011.6
20260505114254 58 236 0.0 3.0 0.00 0.00 0.00 73 1011.6
20260505114151 58 207 0.0 3.0 0.00 0.00 0.00 73 1011.5
20260505114048 58 268 0.0 3.0 0.00 0.00 0.00 72 1011.6
20260505113941 58 227 0.0 3.0 0.00 0.00 0.00 73 1011.6
20260505113834 58 249 0.0 3.0 0.00 0.00 0.00 73 1011.6
20260505113727 58 271 0.0 3.0 0.00 0.00 0.00 73 1011.5
20260505113622 58 224 0.0 3.0 0.00 0.00 0.00 73 1011.5
20260505113515 58 217 0.0 2.0 0.00 0.00 0.00 73 1011.5
20260505113412 58 257 0.0 2.0 0.00 0.00 0.00 73 1011.5
20260505113305 58 257 0.0 2.0 0.00 0.00 0.00 73 1011.5
20260505112935 57 263 0.0 2.0 0.00 0.00 0.00 73 1011.4
20260505112830 57 250 0.0 2.0 0.00 0.00 0.00 73 1011.4
20260505112728 57 302 0.0 6.0 0.00 0.00 0.00 73 1011.3
20260505112622 57 213 0.0 6.0 0.00 0.00 0.00 73 1011.3
20260505112519 57 220 0.0 6.0 0.00 0.00 0.00 73 1011.2
20260505112417 57 346 0.0 6.0 0.00 0.00 0.00 72 1011.2
20260505112311 57 187 0.0 6.0 0.00 0.00 0.00 73 1011.3
20260505112205 57 210 0.0 6.0 0.00 0.00 0.00 73 1011.3
20260505112102 57 285 0.0 6.0 0.00 0.00 0.00 73 1011.3
20260505111958 57 186 0.0 6.0 0.00 0.00 0.00 73 1011.3
20260505111630 57 84 0.0 6.0 0.00 0.00 0.00 73 1011.3
20260505111527 57 200 0.0 6.0 0.00 0.00 0.00 73 1011.2
20260505111422 57 196 0.0 6.0 0.00 0.00 0.00 72 1011.2
20260505111100 57 220 0.0 6.0 0.00 0.00 0.00 72 1011.2
20260505110952 57 275 0.0 6.0 0.00 0.00 0.00 73 1011.2
20260505110845 57 178 0.0 6.0 0.00 0.00 0.00 72 1011.2
20260505110737 57 92 0.0 2.0 0.00 0.00 0.00 74 1011.2
20260505110631 57 189 0.0 0.0 0.00 0.00 0.00 74 1011.1
20260505110529 57 189 0.0 3.0 0.00 0.00 0.00 74 1011.2
20260505110423 57 355 0.0 3.0 0.00 0.00 0.00 74 1011.2
20260505110317 57 249 0.0 3.0 0.00 0.00 0.00 74 1011.1
20260505110211 57 105 0.0 3.0 0.00 0.00 0.00 74 1011.1
20260505110106 57 133 0.0 0.0 0.00 0.00 0.00 74 1011.1
20260505101956 56 296 0.0 4.0 0.00 0.00 0.00 74 1010.8
20260505101851 56 193 0.0 4.0 0.00 0.00 0.00 74 1010.8
20260505101525 56 194 0.0 4.0 0.00 0.00 0.00 74 1010.7
20260505101419 56 186 0.0 4.0 0.00 0.00 0.00 74 1010.7
20260505101314 56 192 0.0 4.0 0.00 0.00 0.00 74 1010.7
20260505101210 56 192 0.0 4.0 0.00 0.00 0.00 74 1010.7
20260505101105 56 171 0.0 4.0 0.00 0.00 0.00 74 1010.6
20260505101001 56 171 0.0 4.0 0.00 0.00 0.00 74 1010.6
20260505100635 56 202 0.0 4.0 0.00 0.00 0.00 74 1010.6
20260505100531 56 216 0.0 4.0 0.00 0.00 0.00 74 1010.6
20260505100424 56 233 0.0 4.0 0.00 0.00 0.00 74 1010.6
20260505100318 56 155 0.0 4.0 0.00 0.00 0.00 74 1010.6
20260505095953 56 167 0.0 3.0 0.00 0.00 0.00 74 1010.6
20260505095848 56 169 0.0 3.0 0.00 0.00 0.00 74 1010.6
20260505095743 56 169 0.0 3.0 0.00 0.00 0.00 74 1010.6
20260505095637 56 169 0.0 3.0 0.00 0.00 0.00 74 1010.6
20260505095530 56 171 0.0 3.0 0.00 0.00 0.00 74 1010.6
20260505095422 56 135 0.0 3.0 0.00 0.00 0.00 74 1010.6
20260505095317 56 185 0.0 2.0 0.00 0.00 0.00 74 1010.7
20260505095214 56 189 0.0 2.0 0.00 0.00 0.00 74 1010.6
20260505095111 56 223 0.0 2.0 0.00 0.00 0.00 74 1010.7
20260505095008 56 223 0.0 2.0 0.00 0.00 0.00 74 1010.7
20260505094905 56 223 0.0 2.0 0.00 0.00 0.00 74 1010.7
20260505094802 56 223 0.0 2.0 0.00 0.00 0.00 74 1010.7
20260505094658 56 254 0.0 2.0 0.00 0.00 0.00 74 1010.7
20260505094552 56 258 0.0 2.0 0.00 0.00 0.00 74 1010.7
20260505094445 56 142 0.0 2.0 0.00 0.00 0.00 74 1010.7
20260505094337 56 142 0.0 2.0 0.00 0.00 0.00 74 1010.7
20260505094233 56 9 0.0 2.0 0.00 0.00 0.00 75 1010.7
20260505094126 56 240 0.0 0.0 0.00 0.00 0.00 75 1010.6
20260505094019 56 240 0.0 1.0 0.00 0.00 0.00 75 1010.7
20260505093916 56 240 0.0 1.0 0.00 0.00 0.00 75 1010.6
20260505093813 56 150 0.0 0.0 0.00 0.00 0.00 75 1010.6
20260505093710 56 150 0.0 2.0 0.00 0.00 0.00 74 1010.6
20260505093609 56 171 0.0 2.0 0.00 0.00 0.00 74 1010.6
20260505093502 57 96 0.0 2.0 0.00 0.00 0.00 74 1010.6
20260505093141 57 181 0.0 2.0 0.00 0.00 0.00 74 1010.5
20260505093038 57 205 0.0 3.0 0.00 0.00 0.00 74 1010.6
20260505092933 56 202 0.0 3.0 0.00 0.00 0.00 73 1010.5
20260505092825 57 215 0.0 3.0 0.00 0.00 0.00 74 1010.5
20260505092718 57 277 0.0 3.0 0.00 0.00 0.00 74 1010.5
20260505092612 57 242 0.0 3.0 0.00 0.00 0.00 74 1010.5
20260505092245 57 178 0.0 3.0 0.00 0.00 0.00 74 1010.5
20260505091926 57 194 0.0 3.0 0.00 0.00 0.00 74 1010.5
20260505091824 57 91 0.0 3.0 0.00 0.00 0.00 74 1010.4
20260505091722 57 165 0.0 3.0 0.00 0.00 0.00 74 1010.5
20260505091616 57 157 0.0 3.0 0.00 0.00 0.00 74 1010.4
20260505091250 57 157 0.0 3.0 0.00 0.00 0.00 74 1010.4
20260505091146 57 149 0.0 3.0 0.00 0.00 0.00 74 1010.5
20260505091040 57 159 0.0 1.0 0.00 0.00 0.00 74 1010.5
20260505090717 57 273 0.0 1.0 0.00 0.00 0.00 74 1010.5
20260505090608 57 15 0.0 1.0 0.00 0.00 0.00 74 1010.5
20260505090243 57 186 0.0 1.0 0.00 0.00 0.00 74 1010.4
20260505090141 57 196 0.0 1.0 0.00 0.00 0.00 74 1010.4
20260505090034 57 159 0.0 1.0 0.00 0.00 0.00 74 1010.5
20260505085930 57 159 0.0 1.0 0.00 0.00 0.00 74 1010.4
20260505085827 57 159 0.0 1.0 0.00 0.00 0.00 74 1010.4
20260505085720 57 121 0.0 1.0 0.00 0.00 0.00 74 1010.4
20260505085617 57 184 0.0 1.0 0.00 0.00 0.00 74 1010.4
20260505085509 57 219 0.0 1.0 0.00 0.00 0.00 74 1010.4
20260505085402 57 200 0.0 1.0 0.00 0.00 0.00 74 1010.4
20260505085258 57 207 0.0 1.0 0.00 0.00 0.00 74 1010.4
20260505085153 57 201 0.0 1.0 0.00 0.00 0.00 74 1010.4
20260505085051 57 196 0.0 1.0 0.00 0.00 0.00 74 1010.4
20260505084949 57 196 0.0 1.0 0.00 0.00 0.00 75 1010.4
20260505084846 57 138 0.0 1.0 0.00 0.00 0.00 75 1010.4
20260505084527 57 169 0.0 2.0 0.00 0.00 0.00 75 1010.4
20260505084423 57 141 0.0 2.0 0.00 0.00 0.00 75 1010.4
20260505084319 57 141 0.0 2.0 0.00 0.00 0.00 75 1010.4
20260505084214 57 183 0.0 2.0 0.00 0.00 0.00 75 1010.4
20260505084112 57 191 0.0 2.0 0.00 0.00 0.00 75 1010.4
20260505084005 57 191 0.0 2.0 0.00 0.00 0.00 75 1010.4
20260505083902 57 208 0.0 2.0 0.00 0.00 0.00 75 1010.3
20260505083539 57 186 0.0 5.0 0.00 0.00 0.00 74 1010.3
20260505083435 57 205 0.0 5.0 0.00 0.00 0.00 74 1010.3
20260505083328 57 155 0.0 5.0 0.00 0.00 0.00 74 1010.3
20260505083000 57 229 0.0 5.0 0.00 0.00 0.00 74 1010.4
20260505082854 57 247 0.0 5.0 0.00 0.00 0.00 74 1010.3
20260505082748 57 312 0.0 5.0 0.00 0.00 0.00 74 1010.4
20260505082642 57 252 0.0 7.0 0.00 0.00 0.00 75 1010.3
20260505082315 57 205 0.0 7.0 0.00 0.00 0.00 75 1010.3
20260505082209 57 205 0.0 7.0 0.00 0.00 0.00 76 1010.3
20260505082104 57 205 0.0 7.0 0.00 0.00 0.00 76 1010.3
20260505081957 57 205 0.0 7.0 0.00 0.00 0.00 76 1010.3
20260505081854 57 205 0.0 7.0 0.00 0.00 0.00 76 1010.3
20260505081747 57 113 0.0 7.0 0.00 0.00 0.00 76 1010.3
20260505081642 57 126 0.0 7.0 0.00 0.00 0.00 76 1010.3
20260505081538 56 183 0.0 7.0 0.00 0.00 0.00 75 1010.3
20260505081433 56 160 0.0 7.0 0.00 0.00 0.00 75 1010.3
20260505081107 56 181 0.0 7.0 0.00 0.00 0.00 75 1010.2
20260505080520 56 163 0.0 5.0 0.00 0.00 0.00 76 1010.1
20260505080417 56 198 0.0 5.0 0.00 0.00 0.00 76 1010.2
20260505080313 56 171 0.0 5.0 0.00 0.00 0.00 76 1010.2
20260505080211 56 302 0.0 4.0 0.00 0.00 0.00 76 1010.1
20260505080108 56 215 0.0 4.0 0.00 0.00 0.00 76 1010.1
20260505080006 56 226 0.0 4.0 0.00 0.00 0.00 76 1010.1
20260505075859 56 211 0.0 4.0 0.00 0.00 0.00 77 1010.1
20260505075757 56 267 0.0 4.0 0.00 0.00 0.00 77 1010.1
20260505075653 56 267 0.0 4.0 0.00 0.00 0.00 77 1010.0
20260505075547 56 138 0.0 3.0 0.00 0.00 0.00 77 1010.1
20260505075440 56 107 0.0 3.0 0.00 0.00 0.00 77 1010.1
20260505074855 56 258 0.0 3.0 0.00 0.00 0.00 77 1010.1
20260505074752 56 228 0.0 0.0 0.00 0.00 0.00 77 1010.1
20260505074645 56 228 0.0 1.0 0.00 0.00 0.00 77 1010.1
20260505074542 56 228 0.0 1.0 0.00 0.00 0.00 77 1010.1
20260505074440 56 194 0.0 1.0 0.00 0.00 0.00 77 1010.1
20260505074332 56 162 0.0 1.0 0.00 0.00 0.00 78 1010.0
20260505074228 56 162 0.0 1.0 0.00 0.00 0.00 78 1010.0
20260505073646 56 118 0.0 3.0 0.00 0.00 0.00 78 1010.0
20260505073321 56 173 0.0 3.0 0.00 0.00 0.00 78 1010.0
20260505072957 56 180 0.0 3.0 0.00 0.00 0.00 79 1010.0
20260505072850 56 132 0.0 3.0 0.00 0.00 0.00 79 1010.0
20260505072745 56 132 0.0 3.0 0.00 0.00 0.00 79 1010.0
20260505072643 56 38 0.0 3.0 0.00 0.00 0.00 79 1010.0
20260505072537 56 168 0.0 3.0 0.00 0.00 0.00 79 1010.0
20260505072434 56 108 0.0 3.0 0.00 0.00 0.00 79 1010.0
20260505072329 56 112 0.0 3.0 0.00 0.00 0.00 78 1009.9
20260505072225 56 191 0.0 3.0 0.00 0.00 0.00 79 1010.0
20260505071900 56 81 0.0 2.0 0.00 0.00 0.00 78 1009.9
20260505071756 56 261 0.0 2.0 0.00 0.00 0.00 78 1009.9
20260505071648 56 288 0.0 2.0 0.00 0.00 0.00 78 1009.9
20260505071320 56 100 0.0 0.0 0.00 0.00 0.00 78 1009.9
20260505070953 56 100 0.0 0.0 0.00 0.00 0.00 78 1009.8
20260505070850 56 100 0.0 0.0 0.00 0.00 0.00 78 1009.9
20260505070748 56 229 0.0 0.0 0.00 0.00 0.00 78 1009.8
20260505070645 56 229 0.0 1.0 0.00 0.00 0.00 79 1009.8
20260505070054 56 154 0.0 3.0 0.00 0.00 0.00 79 1009.9
20260505065949 56 154 0.0 3.0 0.00 0.00 0.00 79 1009.8
20260505065841 56 198 0.0 0.0 0.00 0.00 0.00 79 1009.9
20260505065734 56 198 0.0 0.0 0.00 0.00 0.00 79 1009.9
20260505065626 56 198 0.0 0.0 0.00 0.00 0.00 79 1009.8
20260505065259 56 175 0.0 2.0 0.00 0.00 0.00 79 1009.9
20260505065153 56 175 0.0 2.0 0.00 0.00 0.00 78 1009.9
20260505065050 56 190 0.0 2.0 0.00 0.00 0.00 78 1009.9
20260505064945 56 190 0.0 2.0 0.00 0.00 0.00 78 1009.8
20260505064839 56 190 0.0 2.0 0.00 0.00 0.00 78 1009.8
20260505064733 56 190 0.0 1.0 0.00 0.00 0.00 78 1009.8
20260505064626 56 190 0.0 1.0 0.00 0.00 0.00 78 1009.9
20260505064524 56 190 0.0 1.0 0.00 0.00 0.00 78 1009.9
20260505064420 56 190 0.0 1.0 0.00 0.00 0.00 78 1009.9
20260505064315 56 188 0.0 1.0 0.00 0.00 0.00 78 1009.9
20260505064213 56 180 0.0 1.0 0.00 0.00 0.00 78 1009.8
20260505064110 56 181 0.0 1.0 0.00 0.00 0.00 78 1009.8
20260505064008 56 218 0.0 1.0 0.00 0.00 0.00 78 1009.8
20260505063639 56 238 0.0 0.0 0.00 0.00 0.00 78 1009.8
20260505063536 56 238 0.0 1.0 0.00 0.00 0.00 78 1009.8
20260505063432 56 232 0.0 1.0 0.00 0.00 0.00 78 1009.8
20260505063329 56 233 0.0 1.0 0.00 0.00 0.00 78 1009.8
20260505063224 56 233 0.0 1.0 0.00 0.00 0.00 78 1009.8
20260505063120 56 207 0.0 1.0 0.00 0.00 0.00 78 1009.8
20260505063013 56 196 0.0 1.0 0.00 0.00 0.00 78 1009.8
20260505062909 56 196 0.0 1.0 0.00 0.00 0.00 78 1009.9
20260505062804 56 194 0.0 0.0 0.00 0.00 0.00 78 1009.8
20260505062659 56 194 0.0 0.0 0.00 0.00 0.00 77 1009.8
20260505062555 56 194 0.0 0.0 0.00 0.00 0.00 77 1009.8
20260505062451 56 194 0.0 0.0 0.00 0.00 0.00 77 1009.8
20260505062348 56 194 0.0 0.0 0.00 0.00 0.00 77 1009.8
20260505062241 56 194 0.0 0.0 0.00 0.00 0.00 77 1009.7
20260505062135 56 194 0.0 0.0 0.00 0.00 0.00 77 1009.8
20260505062029 56 194 0.0 0.0 0.00 0.00 0.00 77 1009.8
20260505061923 56 194 0.0 0.0 0.00 0.00 0.00 77 1009.8
20260505061558 57 194 0.0 0.0 0.00 0.00 0.00 76 1009.8
20260505061455 57 194 0.0 0.0 0.00 0.00 0.00 76 1009.8
20260505061351 57 194 0.0 2.0 0.00 0.00 0.00 76 1009.8
20260505061246 57 194 0.0 2.0 0.00 0.00 0.00 76 1009.8
20260505061143 57 232 0.0 1.0 0.00 0.00 0.00 76 1009.8
20260505061041 57 232 0.0 1.0 0.00 0.00 0.00 76 1009.8
20260505060935 57 232 0.0 1.0 0.00 0.00 0.00 75 1009.8
20260505060831 57 232 0.0 1.0 0.00 0.00 0.00 76 1009.8
20260505060727 57 132 0.0 0.0 0.00 0.00 0.00 75 1009.9
20260505060620 57 51 0.0 0.0 0.00 0.00 0.00 75 1009.9
20260505060513 57 51 0.0 0.0 0.00 0.00 0.00 75 1009.9
20260505060405 57 51 0.0 0.0 0.00 0.00 0.00 75 1009.9
20260505060300 57 51 0.0 0.0 0.00 0.00 0.00 75 1009.9
20260505060154 57 51 0.0 0.0 0.00 0.00 0.00 75 1009.9
20260505060046 57 51 0.0 0.0 0.00 0.00 0.00 75 1009.9
20260505055943 57 51 0.0 0.0 0.00 0.00 0.00 75 1009.9
20260505055618 57 51 0.0 0.0 0.00 0.00 0.00 75 1009.9
20260505055514 57 51 0.0 0.0 0.00 0.00 0.00 75 1009.9
20260505055410 57 51 0.0 0.0 0.00 0.00 0.00 75 1009.8
20260505055304 57 51 0.0 0.0 0.00 0.00 0.00 75 1009.8
20260505055156 57 51 0.0 0.0 0.00 0.00 0.00 75 1009.9
20260505055047 57 51 0.0 0.0 0.00 0.00 0.00 75 1009.8
20260505054945 57 51 0.0 0.0 0.00 0.00 0.00 75 1009.9
20260505054843 57 51 0.0 0.0 0.00 0.00 0.00 75 1009.9
20260505054741 57 51 0.0 0.0 0.00 0.00 0.00 75 1009.8
20260505054636 57 51 0.0 0.0 0.00 0.00 0.00 75 1009.9
20260505054533 57 51 0.0 0.0 0.00 0.00 0.00 75 1009.9
20260505054427 57 51 0.0 0.0 0.00 0.00 0.00 74 1009.8
20260505054320 57 51 0.0 0.0 0.00 0.00 0.00 74 1009.9
20260505054213 58 51 0.0 0.0 0.00 0.00 0.00 74 1009.9
20260505054109 58 51 0.0 0.0 0.00 0.00 0.00 74 1009.9
20260505053746 58 51 0.0 0.0 0.00 0.00 0.00 73 1009.8
20260505053639 58 51 0.0 0.0 0.00 0.00 0.00 74 1009.9
20260505053535 58 51 0.0 0.0 0.00 0.00 0.00 74 1009.9
20260505053428 58 51 0.0 0.0 0.00 0.00 0.00 73 1009.9
20260505053321 58 51 0.0 0.0 0.00 0.00 0.00 73 1009.9
20260505035943 61 51 0.0 0.0 0.00 0.00 0.00 65 1010.0
20260505035839 61 51 0.0 0.0 0.00 0.00 0.00 65 1009.9
20260505035731 62 51 0.0 0.0 0.00 0.00 0.00 65 1009.9
20260505035404 62 51 0.0 0.0 0.00 0.00 0.00 65 1010.0
20260505035257 62 51 0.0 0.0 0.00 0.00 0.00 65 1009.9
20260505035155 62 51 0.0 0.0 0.00 0.00 0.00 64 1010.0
20260505035052 62 51 0.0 0.0 0.00 0.00 0.00 65 1010.0
20260505034723 62 51 0.0 0.0 0.00 0.00 0.00 64 1010.0
20260505034619 62 51 0.0 0.0 0.00 0.00 0.00 64 1010.0
20260505034517 62 51 0.0 0.0 0.00 0.00 0.00 64 1010.0
20260505034414 62 51 0.0 0.0 0.00 0.00 0.00 64 1010.0
20260505034309 62 51 0.0 0.0 0.00 0.00 0.00 64 1010.1
20260505034203 62 51 0.0 0.0 0.00 0.00 0.00 64 1010.1
20260505034056 62 130 0.0 0.0 0.00 0.00 0.00 64 1010.1
20260505033949 62 130 0.0 0.0 0.00 0.00 0.00 64 1010.1
20260505033846 62 130 0.0 0.0 0.00 0.00 0.00 64 1010.2
20260505033303 63 130 0.0 0.0 0.00 0.00 0.00 64 1010.2
20260505033157 63 130 0.0 0.0 0.00 0.00 0.00 64 1010.2
20260505032832 63 130 0.0 0.0 0.00 0.00 0.00 63 1010.1
20260505032728 63 130 0.0 0.0 0.00 0.00 0.00 63 1010.1
20260505032623 63 130 0.0 0.0 0.00 0.00 0.00 63 1010.0
20260505032516 63 130 0.0 0.0 0.00 0.00 0.00 63 1010.1
20260505032412 63 130 0.0 0.0 0.00 0.00 0.00 63 1010.1
20260505032308 63 130 0.0 0.0 0.00 0.00 0.00 63 1010.1
20260505031941 63 130 0.0 0.0 0.00 0.00 0.00 63 1010.2
20260505031839 63 130 0.0 0.0 0.00 0.00 0.00 63 1010.1
20260505031735 63 130 0.0 0.0 0.00 0.00 0.00 62 1010.2
20260505031630 63 130 0.0 0.0 0.00 0.00 0.00 62 1010.1
20260505031528 63 130 0.0 0.0 0.00 0.00 0.00 62 1010.2
20260505031424 63 130 0.0 0.0 0.00 0.00 0.00 62 1010.2
20260505030835 64 130 0.0 0.0 0.00 0.00 0.00 61 1010.2
20260505030728 64 130 0.0 0.0 0.00 0.00 0.00 61 1010.2
20260505030405 64 130 0.0 0.0 0.00 0.00 0.00 61 1010.1
20260505030040 64 130 0.0 0.0 0.00 0.00 0.00 61 1010.1
20260505025935 64 130 0.0 0.0 0.00 0.00 0.00 61 1010.1
20260505025828 64 130 0.0 0.0 0.00 0.00 0.00 61 1010.1
20260505025724 64 292 0.0 0.0 0.00 0.00 0.00 61 1010.1
20260505025620 64 292 0.0 0.0 0.00 0.00 0.00 61 1010.1
20260505025516 64 278 0.0 0.0 0.00 0.00 0.00 61 1010.2
20260505025150 64 278 0.0 0.0 0.00 0.00 0.00 60 1010.1
20260505025044 64 278 0.0 0.0 0.00 0.00 0.00 60 1010.1
20260505024942 64 257 0.0 0.0 0.00 0.00 0.00 60 1010.1
20260505024836 64 5 0.0 0.0 0.00 0.00 0.00 60 1010.1
20260505024732 64 5 0.0 0.0 0.00 0.00 0.00 59 1010.1
20260505024630 65 5 0.0 0.0 0.00 0.00 0.00 59 1010.1
20260505024525 65 5 0.0 0.0 0.00 0.00 0.00 59 1010.1
20260505024420 65 5 0.0 0.0 0.00 0.00 0.00 59 1010.1
20260505024316 65 5 0.0 0.0 0.00 0.00 0.00 58 1010.1
20260505024211 65 5 0.0 0.0 0.00 0.00 0.00 58 1010.1
20260505024104 65 5 0.0 0.0 0.00 0.00 0.00 58 1010.2
20260505023957 65 5 0.0 0.0 0.00 0.00 0.00 58 1010.1
20260505023854 65 5 0.0 0.0 0.00 0.00 0.00 58 1010.1
20260505023751 65 273 0.0 0.0 0.00 0.00 0.00 58 1010.1
20260505023647 65 273 0.0 0.0 0.00 0.00 0.00 57 1010.1
20260505023320 65 273 0.0 0.0 0.00 0.00 0.00 58 1010.1
20260505022956 65 101 0.0 0.0 0.00 0.00 0.00 57 1010.0
20260505022848 65 101 0.0 0.0 0.00 0.00 0.00 57 1010.0
20260505022742 65 101 0.0 0.0 0.00 0.00 0.00 57 1010.0
20260505022637 65 101 0.0 0.0 0.00 0.00 0.00 57 1010.0
20260505022529 65 101 0.0 0.0 0.00 0.00 0.00 57 1010.0
20260505022426 65 101 0.0 0.0 0.00 0.00 0.00 57 1010.0
20260505022058 66 146 0.0 0.0 0.00 0.00 0.00 56 1010.0
20260505021954 66 146 0.0 0.0 0.00 0.00 0.00 56 1010.0
20260505021851 66 146 0.0 0.0 0.00 0.00 0.00 56 1010.0
20260505021744 66 146 0.0 0.0 0.00 0.00 0.00 56 1010.0
20260505021639 66 146 0.0 0.0 0.00 0.00 0.00 56 1010.0
20260505021533 66 146 0.0 0.0 0.00 0.00 0.00 56 1010.0
20260505021429 66 146 0.0 0.0 0.00 0.00 0.00 56 1010.0
20260505021325 66 146 0.0 0.0 0.00 0.00 0.00 56 1010.0
20260505021222 66 146 0.0 0.0 0.00 0.00 0.00 56 1009.9
20260505021114 66 146 0.0 0.0 0.00 0.00 0.00 56 1010.0
20260505021008 66 146 0.0 0.0 0.00 0.00 0.00 56 1010.0
20260505020905 66 146 0.0 0.0 0.00 0.00 0.00 56 1010.0
20260505020543 66 146 0.0 0.0 0.00 0.00 0.00 56 1010.0
20260505020440 66 146 0.0 0.0 0.00 0.00 0.00 56 1010.0
20260505020337 66 146 0.0 0.0 0.00 0.00 0.00 56 1010.0
20260505020235 66 146 0.0 0.0 0.00 0.00 0.00 56 1010.0
20260505020132 66 146 0.0 0.0 0.00 0.00 0.00 56 1010.0
20260505020029 66 146 0.0 0.0 0.00 0.00 0.00 56 1010.0
20260505015707 66 146 0.0 0.0 0.00 0.00 0.00 56 1009.9
20260505015604 66 137 0.0 0.0 0.00 0.00 0.00 55 1009.9
20260505015458 66 137 0.0 0.0 0.00 0.00 0.00 55 1009.9
20260505015138 66 137 0.0 0.0 0.00 0.00 0.00 55 1009.8
20260505015032 66 137 0.0 2.0 0.00 0.00 0.00 55 1009.8
20260505014925 66 35 0.0 2.0 0.00 0.00 0.00 55 1009.8
20260505014822 66 225 0.0 2.0 0.00 0.00 0.00 55 1009.8
20260505014719 66 267 0.0 2.0 0.00 0.00 0.00 55 1009.9
20260505014612 66 355 0.0 2.0 0.00 0.00 0.00 55 1009.8
20260505014506 66 355 0.0 2.0 0.00 0.00 0.00 55 1009.9
20260505014139 66 17 0.0 2.0 0.00 0.00 0.00 54 1009.6
20260505014035 66 17 0.0 2.0 0.00 0.00 0.00 55 1009.6
20260505013933 66 303 0.0 2.0 0.00 0.00 0.00 55 1009.7
20260505013825 66 303 0.0 2.0 0.00 0.00 0.00 54 1009.7
20260505013718 67 292 0.0 2.0 0.00 0.00 0.00 55 1009.8
20260505013613 67 181 0.0 2.0 0.00 0.00 0.00 54 1009.8
20260505013511 67 202 0.0 2.0 0.00 0.00 0.00 54 1009.8
20260505013407 67 44 0.0 0.0 0.00 0.00 0.00 54 1009.7
20260505013044 67 119 0.0 2.0 0.00 0.00 0.00 54 1009.6
20260505012942 67 175 0.0 2.0 0.00 0.00 0.00 53 1009.6
20260505012839 67 100 0.0 2.0 0.00 0.00 0.00 53 1009.6
20260505012731 67 250 0.0 2.0 0.00 0.00 0.00 54 1009.7
20260505012628 67 273 0.0 2.0 0.00 0.00 0.00 54 1009.6
20260505012522 67 273 0.0 2.0 0.00 0.00 0.00 54 1009.7
20260505012420 67 216 0.0 1.0 0.00 0.00 0.00 54 1009.7
20260505012317 67 171 0.0 1.0 0.00 0.00 0.00 54 1009.7
20260505012214 67 171 0.0 1.0 0.00 0.00 0.00 54 1009.7
20260505012111 67 136 0.0 1.0 0.00 0.00 0.00 54 1009.6
20260505012008 67 107 0.0 1.0 0.00 0.00 0.00 53 1009.5
20260505011645 68 140 0.0 0.0 0.00 0.00 0.00 52 1009.5
20260505011538 68 105 0.0 0.0 0.00 0.00 0.00 52 1009.5
20260505011434 68 138 0.0 0.0 0.00 0.00 0.00 52 1009.5
20260505011326 68 138 0.0 0.0 0.00 0.00 0.00 52 1009.5
20260505011218 68 138 0.0 3.0 0.00 0.00 0.00 52 1009.5
20260505011111 68 138 0.0 3.0 0.00 0.00 0.00 52 1009.5
20260505011005 68 101 0.0 2.0 0.00 0.00 0.00 52 1009.5
20260505010900 68 72 0.0 2.0 0.00 0.00 0.00 51 1009.5
20260505010753 68 42 0.0 1.0 0.00 0.00 0.00 51 1009.4
20260505010651 68 74 0.0 1.0 0.00 0.00 0.00 51 1009.4
20260505010544 68 204 0.0 1.0 0.00 0.00 0.00 51 1009.4
20260505005956 68 344 0.0 0.0 0.00 0.00 0.00 50 1009.3
20260505005851 68 344 0.0 0.0 0.00 0.00 0.00 50 1009.2
20260505005744 69 344 0.0 0.0 0.00 0.00 0.00 49 1009.2
20260505005637 69 344 0.0 0.0 0.00 0.00 0.00 50 1009.3
20260505005535 69 344 0.0 0.0 0.00 0.00 0.00 50 1009.2
20260505005432 69 344 0.0 1.0 0.00 0.00 0.00 50 1009.2
20260505005327 69 344 0.0 1.0 0.00 0.00 0.00 50 1009.2
20260505005224 69 344 0.0 2.0 0.00 0.00 0.00 50 1009.3
20260505005118 69 344 0.0 2.0 0.00 0.00 0.00 50 1009.2
20260505005014 69 344 0.0 2.0 0.00 0.00 0.00 50 1009.2
20260505004649 69 102 0.0 0.0 0.00 0.00 0.00 51 1009.3
20260505004322 69 102 0.0 2.0 0.00 0.00 0.00 49 1009.3
20260505004215 69 102 0.0 2.0 0.00 0.00 0.00 50 1009.3
20260505004108 69 102 0.0 2.0 0.00 0.00 0.00 49 1009.2
20260505004006 69 102 0.0 2.0 0.00 0.00 0.00 49 1009.2
20260505003903 69 102 0.0 2.0 0.00 0.00 0.00 48 1009.2
20260505003532 69 194 0.0 0.0 0.00 0.00 0.00 48 1009.2
20260505003427 69 194 0.0 2.0 0.00 0.00 0.00 48 1009.2
20260505003325 69 202 0.0 2.0 0.00 0.00 0.00 48 1009.2
20260505003002 69 223 0.0 0.0 0.00 0.00 0.00 48 1009.2
20260505002859 69 223 0.0 1.0 0.00 0.00 0.00 48 1009.3
20260505002530 70 38 0.0 0.0 0.00 0.00 0.00 48 1009.2
20260505002206 70 38 0.0 0.0 0.00 0.00 0.00 48 1009.2
20260505001843 70 38 0.0 1.0 0.00 0.00 0.00 47 1009.1
20260505001739 70 32 0.0 0.0 0.00 0.00 0.00 47 1009.1
20260505001526 70 32 0.0 0.0 0.00 0.00 0.00 47 1009.1
20260505001420 70 32 0.0 0.0 0.00 0.00 0.00 47 1009.1
20260505001318 70 32 0.0 0.0 0.00 0.00 0.00 47 1009.1
20260505001212 70 106 0.0 0.0 0.00 0.00 0.00 48 1009.1
20260505001104 70 332 0.0 1.0 0.00 0.00 0.00 48 1009.2
20260505000741 70 332 0.0 1.0 0.00 0.00 0.00 47 1009.1
20260505000417 70 132 0.0 1.0 0.00 0.00 0.00 47 1009.1
20260505000313 70 71 0.0 1.0 0.00 0.00 0.00 48 1009.1
20260505000211 70 71 0.0 1.0 0.00 0.00 0.00 47 1009.1
20260505000103 70 114 0.0 1.0 0.00 0.00 0.00 47 1009.1
20260504235957 70 155 0.0 1.0 0.00 0.00 0.00 47 1009.1
20260504235635 71 22 0.0 0.0 0.00 0.00 0.00 47 1009.0
20260504235048 71 119 0.0 2.0 0.00 0.00 0.00 47 1009.0
20260504234940 71 101 0.0 2.0 0.00 0.00 0.00 47 1009.1
20260504234615 71 230 0.0 2.0 0.00 0.00 0.00 46 1009.0
20260504234511 71 67 0.0 2.0 0.00 0.00 0.00 46 1009.0
20260504234407 71 94 0.0 2.0 0.00 0.00 0.00 46 1009.0
20260504234042 71 51 0.0 1.0 0.00 0.00 0.00 47 1009.0
20260504233935 71 323 0.0 1.0 0.00 0.00 0.00 46 1009.0
20260504233832 71 164 0.0 1.0 0.00 0.00 0.00 46 1009.1
20260504233729 71 127 0.0 1.0 0.00 0.00 0.00 46 1009.0
20260504233624 71 75 0.0 1.0 0.00 0.00 0.00 45 1009.0
20260504233518 71 244 0.0 0.0 0.00 0.00 0.00 46 1009.0
20260504233409 71 284 0.0 0.0 0.00 0.00 0.00 46 1009.0
20260504233306 71 46 0.0 1.0 0.00 0.00 0.00 46 1008.9
20260504233201 71 46 0.0 1.0 0.00 0.00 0.00 45 1008.9
20260504233056 71 167 0.0 0.0 0.00 0.00 0.00 45 1008.9
20260504232952 71 262 0.0 0.0 0.00 0.00 0.00 45 1008.9
20260504232846 71 267 0.0 3.0 0.00 0.00 0.00 45 1008.9
20260504232743 71 267 0.0 5.0 0.00 0.00 0.00 45 1008.8
20260504232638 71 43 0.0 5.0 0.00 0.00 0.00 45 1008.9
20260504232533 71 296 0.0 5.0 0.00 0.00 0.00 45 1008.8
20260504232428 71 296 0.0 5.0 0.00 0.00 0.00 45 1008.8
20260504232325 71 283 0.0 5.0 0.00 0.00 0.00 45 1008.8
20260504232222 71 74 0.0 5.0 0.00 0.00 0.00 45 1008.8
20260504232116 71 338 0.0 5.0 0.00 0.00 0.00 45 1008.8
20260504232010 71 157 0.0 5.0 0.00 0.00 0.00 44 1008.8
20260504231903 71 80 0.0 5.0 0.00 0.00 0.00 44 1008.8
20260504231801 71 80 0.0 8.0 0.00 0.00 0.00 44 1008.8
20260504231658 71 155 0.0 8.0 0.00 0.00 0.00 44 1008.9
20260504231549 71 53 0.0 8.0 0.00 0.00 0.00 45 1008.8
20260504231446 72 53 0.0 8.0 0.00 0.00 0.00 45 1008.8
20260504231340 72 205 0.0 8.0 0.00 0.00 0.00 44 1008.8
20260504231236 72 45 0.0 8.0 0.00 0.00 0.00 45 1008.8
20260504231133 72 91 0.0 8.0 0.00 0.00 0.00 45 1008.8
20260504231028 72 91 0.0 8.0 0.00 0.00 0.00 44 1008.8
20260504230924 72 163 1.0 8.0 0.00 0.00 0.00 45 1008.8
20260504230822 72 300 1.0 8.0 0.00 0.00 0.00 44 1008.8
20260504230714 72 182 1.0 8.0 0.00 0.00 0.00 45 1008.8
20260504230608 72 213 1.0 8.0 0.00 0.00 0.00 44 1008.8
20260504230505 72 33 1.0 8.0 0.00 0.00 0.00 44 1008.8
20260504230141 72 104 0.0 8.0 0.00 0.00 0.00 44 1008.7
20260504230039 72 80 0.0 8.0 0.00 0.00 0.00 44 1008.8
20260504225935 72 182 0.0 8.0 0.00 0.00 0.00 43 1008.8
20260504225830 72 332 0.0 8.0 0.00 0.00 0.00 42 1008.9
20260504225724 72 105 0.0 5.0 0.00 0.00 0.00 42 1008.8
20260504225618 72 204 0.0 3.0 0.00 0.00 0.00 43 1008.8
20260504225515 72 116 0.0 3.0 0.00 0.00 0.00 43 1008.8
20260504225410 72 94 0.0 3.0 0.00 0.00 0.00 43 1008.8
20260504225307 72 94 0.0 3.0 0.00 0.00 0.00 43 1008.8
20260504224940 72 51 0.0 5.0 0.00 0.00 0.00 42 1008.7
20260504224832 73 196 0.0 5.0 0.00 0.00 0.00 42 1008.7
20260504224730 72 169 0.0 5.0 0.00 0.00 0.00 43 1008.8
20260504224622 73 311 0.0 5.0 0.00 0.00 0.00 43 1008.8
20260504224518 73 346 0.0 5.0 0.00 0.00 0.00 43 1008.7
20260504224412 73 280 0.0 5.0 0.00 0.00 0.00 43 1008.7
20260504224308 73 252 0.0 5.0 0.00 0.00 0.00 43 1008.7
20260504224201 73 215 0.0 5.0 0.00 0.00 0.00 43 1008.7
20260504224056 73 128 0.0 5.0 0.00 0.00 0.00 42 1008.6
20260504223954 73 275 1.0 5.0 0.00 0.00 0.00 42 1008.6
20260504223848 73 194 1.0 5.0 0.00 0.00 0.00 42 1008.7
20260504223744 73 120 1.0 5.0 0.00 0.00 0.00 42 1008.6
20260504223638 73 215 1.0 5.0 0.00 0.00 0.00 42 1008.6
20260504223313 73 126 0.0 5.0 0.00 0.00 0.00 42 1008.6
20260504223207 73 126 0.0 5.0 0.00 0.00 0.00 41 1008.6
20260504223103 73 186 0.0 5.0 0.00 0.00 0.00 42 1008.6
20260504222957 73 219 0.0 3.0 0.00 0.00 0.00 40 1008.6
20260504222634 73 145 0.0 5.0 0.00 0.00 0.00 41 1008.6
20260504222528 73 45 0.0 5.0 0.00 0.00 0.00 41 1008.6
20260504221945 73 230 0.0 5.0 0.00 0.00 0.00 41 1008.6
20260504221401 74 195 0.0 5.0 0.00 0.00 0.00 39 1008.7
20260504221256 74 206 1.0 5.0 0.00 0.00 0.00 39 1008.7
20260504221151 74 160 1.0 5.0 0.00 0.00 0.00 39 1008.6
20260504221049 74 123 0.0 5.0 0.00 0.00 0.00 39 1008.6
20260504220944 74 164 1.0 5.0 0.00 0.00 0.00 40 1008.7
20260504220841 74 132 0.0 5.0 0.00 0.00 0.00 41 1008.8
20260504220736 74 240 0.0 4.0 0.00 0.00 0.00 40 1008.7
20260504220634 74 17 0.0 4.0 0.00 0.00 0.00 40 1008.7
20260504220530 74 138 0.0 4.0 0.00 0.00 0.00 40 1008.8
20260504220426 74 240 1.0 4.0 0.00 0.00 0.00 40 1008.7
20260504220322 74 229 1.0 4.0 0.00 0.00 0.00 39 1008.7
20260504220215 74 225 1.0 4.0 0.00 0.00 0.00 39 1008.8
20260504220107 74 225 1.0 8.0 0.00 0.00 0.00 39 1008.7
20260504220002 74 149 1.0 8.0 0.00 0.00 0.00 38 1008.7
20260504215637 74 205 1.0 8.0 0.00 0.00 0.00 38 1008.8
20260504215531 74 185 1.0 8.0 0.00 0.00 0.00 38 1008.8
20260504215423 74 233 0.0 8.0 0.00 0.00 0.00 39 1008.8
20260504215320 74 183 1.0 8.0 0.00 0.00 0.00 38 1008.8
20260504215216 74 158 1.0 8.0 0.00 0.00 0.00 37 1008.8
20260504215113 74 61 1.0 8.0 0.00 0.00 0.00 38 1008.8
20260504215009 74 182 1.0 8.0 0.00 0.00 0.00 38 1008.8
20260504214641 74 75 1.0 8.0 0.00 0.00 0.00 39 1008.8
20260504214536 74 204 1.0 8.0 0.00 0.00 0.00 38 1008.8
20260504214431 74 168 1.0 8.0 0.00 0.00 0.00 39 1008.8
20260504214323 74 182 1.0 8.0 0.00 0.00 0.00 39 1008.8
20260504214220 74 67 1.0 8.0 0.00 0.00 0.00 39 1008.8
20260504214117 74 182 1.0 7.0 0.00 0.00 0.00 39 1008.8
20260504214012 74 146 1.0 7.0 0.00 0.00 0.00 39 1008.7
20260504213909 74 157 1.0 7.0 0.00 0.00 0.00 39 1008.6
20260504213806 74 29 1.0 7.0 0.00 0.00 0.00 38 1008.6
20260504213702 74 139 1.0 7.0 0.00 0.00 0.00 39 1008.6
20260504213556 74 152 1.0 7.0 0.00 0.00 0.00 40 1008.7
20260504213449 74 187 1.0 7.0 0.00 0.00 0.00 40 1008.7
20260504213342 74 273 1.0 7.0 0.00 0.00 0.00 38 1008.7
20260504213018 74 52 1.0 3.0 0.00 0.00 0.00 38 1008.8
20260504212910 74 182 1.0 3.0 0.00 0.00 0.00 38 1008.8
20260504212805 74 134 1.0 3.0 0.00 0.00 0.00 38 1008.8
20260504212700 75 178 1.0 3.0 0.00 0.00 0.00 37 1008.8
20260504212556 75 229 1.0 3.0 0.00 0.00 0.00 38 1008.8
20260504212448 75 159 1.0 3.0 0.00 0.00 0.00 38 1008.8
20260504212347 75 276 1.0 3.0 0.00 0.00 0.00 37 1008.7
20260504212020 75 116 1.0 5.0 0.00 0.00 0.00 38 1008.8
20260504211917 75 185 1.0 5.0 0.00 0.00 0.00 38 1008.7
20260504211809 75 250 1.0 5.0 0.00 0.00 0.00 37 1008.8
20260504211703 75 351 1.0 5.0 0.00 0.00 0.00 37 1008.8
20260504211600 75 206 1.0 5.0 0.00 0.00 0.00 37 1008.8
20260504211455 75 90 1.0 5.0 0.00 0.00 0.00 37 1008.8
20260504211129 75 120 1.0 5.0 0.00 0.00 0.00 36 1008.8
20260504211028 75 122 1.0 5.0 0.00 0.00 0.00 36 1008.8
20260504210924 75 180 1.0 5.0 0.00 0.00 0.00 36 1008.9
20260504210820 75 182 1.0 5.0 0.00 0.00 0.00 36 1009.0
20260504210714 75 78 1.0 5.0 0.00 0.00 0.00 36 1008.9
20260504210607 75 205 1.0 5.0 0.00 0.00 0.00 37 1008.9
20260504210501 75 95 1.0 5.0 0.00 0.00 0.00 36 1008.9
20260504210357 75 164 1.0 5.0 0.00 0.00 0.00 37 1008.9
20260504210254 75 17 1.0 7.0 0.00 0.00 0.00 36 1008.9
20260504205928 75 136 1.0 7.0 0.00 0.00 0.00 36 1008.9
20260504205823 75 137 1.0 7.0 0.00 0.00 0.00 36 1008.9
20260504205717 75 46 1.0 7.0 0.00 0.00 0.00 37 1008.9
20260504205614 75 182 1.0 7.0 0.00 0.00 0.00 36 1008.9
20260504205511 75 187 1.0 7.0 0.00 0.00 0.00 36 1008.9
20260504205404 75 64 2.0 7.0 0.00 0.00 0.00 36 1008.9
20260504204825 75 80 1.0 7.0 0.00 0.00 0.00 34 1008.8
20260504204457 76 269 1.0 7.0 0.00 0.00 0.00 35 1008.8
20260504204355 76 211 1.0 7.0 0.00 0.00 0.00 35 1008.9
20260504204249 76 338 1.0 4.0 0.00 0.00 0.00 35 1008.9
20260504204143 76 212 1.0 4.0 0.00 0.00 0.00 35 1008.9
20260504204038 76 101 1.0 4.0 0.00 0.00 0.00 35 1008.9
20260504203934 76 91 1.0 4.0 0.00 0.00 0.00 37 1008.9
20260504203827 76 88 1.0 5.0 0.00 0.00 0.00 36 1008.8
20260504203721 75 244 1.0 5.0 0.00 0.00 0.00 36 1008.8
20260504203615 75 15 1.0 5.0 0.00 0.00 0.00 37 1008.8
20260504203512 75 219 1.0 5.0 0.00 0.00 0.00 36 1008.8
20260504203410 75 58 1.0 5.0 0.00 0.00 0.00 35 1008.8
20260504203303 75 215 1.0 5.0 0.00 0.00 0.00 36 1008.8
20260504203157 75 243 1.0 5.0 0.00 0.00 0.00 36 1008.8
20260504203052 75 212 1.0 5.0 0.00 0.00 0.00 36 1008.8
20260504202947 75 244 1.0 5.0 0.00 0.00 0.00 36 1008.8
20260504202844 75 192 1.0 5.0 0.00 0.00 0.00 36 1008.8
20260504202741 75 163 1.0 5.0 0.00 0.00 0.00 35 1008.8
20260504202637 75 211 1.0 5.0 0.00 0.00 0.00 37 1008.8
20260504202310 75 5 1.0 5.0 0.00 0.00 0.00 36 1008.9
20260504202207 75 169 1.0 5.0 0.00 0.00 0.00 35 1008.9
20260504201847 76 345 1.0 10.0 0.00 0.00 0.00 34 1009.0
20260504201743 76 136 1.0 10.0 0.00 0.00 0.00 34 1008.9
20260504201641 76 108 1.0 10.0 0.00 0.00 0.00 35 1008.9
20260504201534 75 55 1.0 10.0 0.00 0.00 0.00 35 1009.0
20260504201427 75 119 1.0 10.0 0.00 0.00 0.00 35 1009.0
20260504201320 75 263 1.0 10.0 0.00 0.00 0.00 35 1009.0
20260504201214 75 325 1.0 10.0 0.00 0.00 0.00 35 1009.0
20260504201110 75 254 1.0 10.0 0.00 0.00 0.00 34 1009.0
20260504201003 76 232 1.0 10.0 0.00 0.00 0.00 32 1009.0
20260504200901 76 255 1.0 10.0 0.00 0.00 0.00 33 1009.0
20260504200757 76 0 1.0 10.0 0.00 0.00 0.00 33 1009.0
20260504200653 76 187 1.0 10.0 0.00 0.00 0.00 33 1009.0
20260504200545 76 197 1.0 10.0 0.00 0.00 0.00 36 1009.1
20260504200439 76 153 1.0 10.0 0.00 0.00 0.00 36 1009.1
20260504200336 76 105 1.0 10.0 0.00 0.00 0.00 34 1009.1
20260504200230 76 145 1.0 10.0 0.00 0.00 0.00 35 1009.0
20260504195902 76 269 0.0 10.0 0.00 0.00 0.00 35 1009.0
20260504195755 76 245 0.0 7.0 0.00 0.00 0.00 35 1009.1
20260504195650 76 85 1.0 7.0 0.00 0.00 0.00 34 1009.1
20260504195545 76 146 1.0 7.0 0.00 0.00 0.00 35 1009.1
20260504195438 75 71 1.0 7.0 0.00 0.00 0.00 33 1009.1
20260504195115 76 54 1.0 7.0 0.00 0.00 0.00 34 1009.3
20260504195009 76 36 1.0 7.0 0.00 0.00 0.00 34 1009.3
20260504194904 76 259 1.0 7.0 0.00 0.00 0.00 33 1009.4
20260504194801 76 59 1.0 7.0 0.00 0.00 0.00 33 1009.3
20260504194657 76 107 1.0 7.0 0.00 0.00 0.00 33 1009.3
20260504194554 76 128 0.0 7.0 0.00 0.00 0.00 33 1009.2
20260504194446 76 122 0.0 4.0 0.00 0.00 0.00 34 1009.3
20260504194342 76 180 0.0 4.0 0.00 0.00 0.00 35 1009.4
20260504194235 76 242 0.0 4.0 0.00 0.00 0.00 36 1009.3
20260504194129 76 103 1.0 8.0 0.00 0.00 0.00 35 1009.4
20260504194024 76 115 1.0 8.0 0.00 0.00 0.00 34 1009.4
20260504193917 76 43 1.0 8.0 0.00 0.00 0.00 34 1009.4
20260504193809 76 341 1.0 8.0 0.00 0.00 0.00 33 1009.4
20260504193442 76 0 1.0 8.0 0.00 0.00 0.00 32 1009.6
20260504193338 76 240 1.0 8.0 0.00 0.00 0.00 33 1009.6
20260504193232 76 330 1.0 8.0 0.00 0.00 0.00 33 1009.5
20260504192906 76 216 1.0 8.0 0.00 0.00 0.00 35 1009.6
20260504192802 76 251 1.0 8.0 0.00 0.00 0.00 35 1009.6
20260504192659 76 121 1.0 8.0 0.00 0.00 0.00 34 1009.6
20260504192552 76 180 1.0 8.0 0.00 0.00 0.00 33 1009.6
20260504192448 76 248 1.0 8.0 0.00 0.00 0.00 33 1009.6
20260504192340 76 343 1.0 8.0 0.00 0.00 0.00 33 1009.6
20260504192234 77 119 1.0 8.0 0.00 0.00 0.00 32 1009.6
20260504192127 77 87 1.0 6.0 0.00 0.00 0.00 34 1009.7
20260504192022 77 213 1.0 6.0 0.00 0.00 0.00 33 1009.7
20260504191655 76 76 1.0 6.0 0.00 0.00 0.00 33 1009.7
20260504191331 76 119 1.0 6.0 0.00 0.00 0.00 32 1009.8
20260504190746 76 173 1.0 10.0 0.00 0.00 0.00 34 1010.0
20260504190641 76 347 1.0 10.0 0.00 0.00 0.00 34 1009.9
20260504190539 76 100 1.0 10.0 0.00 0.00 0.00 33 1009.9
20260504190433 76 239 2.0 10.0 0.00 0.00 0.00 33 1009.9
20260504190328 76 123 2.0 10.0 0.00 0.00 0.00 32 1009.9
20260504190221 76 238 2.0 10.0 0.00 0.00 0.00 33 1010.0
20260504190114 76 192 1.0 10.0 0.00 0.00 0.00 33 1010.0
20260504190011 77 151 1.0 10.0 0.00 0.00 0.00 33 1010.0
20260504185424 76 162 2.0 10.0 0.00 0.00 0.00 34 1010.2
20260504185320 76 225 2.0 10.0 0.00 0.00 0.00 33 1010.2
20260504185217 76 192 2.0 10.0 0.00 0.00 0.00 33 1010.2
20260504185115 76 222 2.0 10.0 0.00 0.00 0.00 31 1010.2
20260504185009 77 76 2.0 10.0 0.00 0.00 0.00 30 1010.1
20260504184901 77 9 1.0 8.0 0.00 0.00 0.00 32 1010.3
20260504184757 77 218 1.0 8.0 0.00 0.00 0.00 33 1010.3
20260504184650 77 95 1.0 8.0 0.00 0.00 0.00 33 1010.4